Ely, MN

9:12 AM CST on February 25, 2017 (GMT -0600)
Ely Municipal

Weather History for KELO - March, 2014

Change the Weather History Date:

Monday, March 3, 2014

  Actual Average Record
Temperature  
Mean Temperature -10 °F -  
Max Temperature 12 °F 23 °F 32 °F (2013)
Min Temperature -32 °F 4 °F -32 °F (2014)
Degree Days  
Heating Degree Days 75    
Moisture  
Dew Point -19 °F    
Average Humidity 60    
Maximum Humidity 85    
Minimum Humidity 28    
Precipitation  
Precipitation 0.00 in - - ()
Sea Level Pressure  
Sea Level Pressure 30.22 in    
Wind  
Wind Speed 2 mph (WSW)    
Max Wind Speed 8 mph    
Max Gust Speed -    
Visibility 9 miles    
Events Snow    
Averages and records for this station are not official NWS values.
T = Trace of Precipitation, MM = Missing Value Source: NWS Daily Summary

Daily Weather History Graph

Daily Weather History Graph

Search for Another Location

Airport or City:

Trip Planner

Search our weather history database for the weather conditions in past years. The results will help you decide how hot, cold, wet, or windy it might be!

Date:

Astronomy

Mar. 03, 2014 Rise Set
Actual Time 6:44 AM CST 5:55 PM CST
Civil Twilight 6:13 AM CST 6:26 PM CST
Nautical Twilight 5:37 AM CST 7:01 PM CST
Astronomical Twilight 5:01 AM CST 7:37 PM CST
Moon 7:39 AM CST (3/3) 9:14 PM CST (3/3)
Length of Visible Light 12h 12m
Length of Day
11h 10m
Waxing Crescent, 8% of the Moon is Illuminated
Mar 3
Waxing Crescent
Mar 8
First Quarter
Mar 16
Full
Mar 23
Last Quarter
Mar 30
New

Hourly Weather History & Observations

Time (CST) Temp. Windchill Dew Point Humidity Pressure Visibility Wind Dir Wind Speed Gust Speed Precip Events Conditions
12:13 AM -23.8 °F - -29.2 °F 76% 30.37 in 10.0 mi Calm Calm - N/A   Clear
12:32 AM -25.6 °F - -31.0 °F 76% 30.37 in 10.0 mi Calm Calm - N/A   Clear
12:53 AM -25.6 °F -37.1 °F -32.8 °F 69% 30.37 in 10.0 mi WSW 3.5 mph - N/A   Clear
1:13 AM -27.4 °F - -32.8 °F 75% 30.37 in 10.0 mi Calm Calm - N/A   Clear
1:33 AM -27.4 °F - -32.8 °F 75% 30.37 in 10.0 mi Calm Calm - N/A   Clear
1:53 AM -27.4 °F - -34.6 °F 69% 29.70 in 10.0 mi Calm Calm - N/A   Clear
2:13 AM -27.4 °F - -34.6 °F 69% - 10.0 mi Calm Calm - N/A   Clear
2:33 AM -29.2 °F -41.2 °F -36.4 °F 68% 29.71 in 10.0 mi SW 3.5 mph - N/A   Clear
2:53 AM -27.4 °F -39.2 °F -32.8 °F 75% 30.38 in 10.0 mi SW 3.5 mph - N/A   Clear
3:13 AM -25.6 °F - -31.0 °F 76% - 10.0 mi Calm Calm - N/A   Clear
3:33 AM -25.6 °F -41.9 °F -31.0 °F 76% - 10.0 mi SSW 5.8 mph - N/A   Clear
3:53 AM -25.6 °F - -32.8 °F 69% - 10.0 mi Calm Calm - N/A   Clear
4:13 AM -27.4 °F - -32.8 °F 75% 30.37 in 10.0 mi Calm Calm - N/A   Clear
4:33 AM -25.6 °F - -31.0 °F 76% 30.37 in 10.0 mi Calm Calm - N/A   Clear
4:53 AM -25.6 °F - -29.2 °F 83% 30.37 in 10.0 mi Calm Calm - N/A   Clear
5:13 AM -29.2 °F - -36.4 °F 68% 30.37 in 10.0 mi Calm Calm - N/A   Clear
5:33 AM -31.0 °F - -38.2 °F 68% 30.37 in 10.0 mi Calm Calm - N/A   Clear
5:53 AM -27.4 °F - -34.6 °F 69% 30.37 in 10.0 mi Calm Calm - N/A   Clear
6:13 AM -32.8 °F - -38.2 °F 75% 30.37 in 10.0 mi Calm Calm - N/A   Clear
6:33 AM -32.8 °F - -38.2 °F 75% - 10.0 mi Calm Calm - N/A   Clear
6:52 AM -32.8 °F - -40.0 °F 68% - 10.0 mi Calm Calm - N/A   Clear
7:13 AM -32.8 °F - -40.0 °F 68% - 10.0 mi Calm Calm - N/A   Clear
7:33 AM -29.2 °F - -36.4 °F 68% - 10.0 mi Calm Calm - N/A   Clear
7:52 AM -25.6 °F - -31.0 °F 76% 30.34 in 10.0 mi Calm Calm - N/A   Clear
8:13 AM -20.2 °F - -25.6 °F 76% 30.34 in 10.0 mi Calm Calm - N/A   Clear
8:32 AM -14.8 °F - -20.2 °F 77% 30.34 in 10.0 mi Calm Calm - N/A   Clear
8:53 AM -14.8 °F - -20.2 °F 77% 30.33 in 10.0 mi Calm Calm - N/A   Clear
9:13 AM -11.2 °F - -18.4 °F 70% 30.33 in 10.0 mi Calm Calm - N/A   Clear
9:33 AM -7.6 °F -16.5 °F -18.4 °F 59% 30.32 in 10.0 mi WSW 3.5 mph - N/A   Clear
9:53 AM -4.0 °F -14.6 °F -16.6 °F 55% 30.31 in 10.0 mi WSW 4.6 mph - N/A   Clear
10:13 AM -2.2 °F -15.6 °F -16.6 °F 50% 30.31 in 10.0 mi WSW 6.9 mph - N/A   Clear
10:33 AM 1.4 °F -12.5 °F -18.4 °F 39% 30.30 in 10.0 mi WNW 8.1 mph - N/A   Clear
10:53 AM 1.4 °F -11.3 °F -16.6 °F 43% 30.30 in 10.0 mi WSW 6.9 mph - N/A   Clear
11:13 AM 3.2 °F -7.8 °F -16.6 °F 39% 30.29 in 10.0 mi WSW 5.8 mph - N/A   Clear
11:32 AM 3.2 °F -9.1 °F -18.4 °F 36% 30.29 in 10.0 mi WSW 6.9 mph - N/A   Clear
11:53 AM 5.0 °F -5.6 °F -16.6 °F 36% 30.28 in 10.0 mi WSW 5.8 mph - N/A   Clear
12:13 PM 5.0 °F -8.1 °F -18.4 °F 33% 30.27 in 10.0 mi West 8.1 mph - N/A   Clear
12:32 PM 6.8 °F -5.9 °F -18.4 °F 31% 30.26 in 10.0 mi WSW 8.1 mph - N/A   Clear
12:53 PM 8.6 °F -2.6 °F -18.4 °F 28% 30.25 in 10.0 mi WNW 6.9 mph - N/A   Clear
1:13 PM 8.6 °F -1.3 °F -16.6 °F 31% 30.24 in 10.0 mi West 5.8 mph - N/A   Clear
1:32 PM - - - N/A% 29.57 in - West 3.5 mph - N/A   Unknown
1:53 PM 10.4 °F 4.0 °F -14.8 °F 31% 29.57 in 10.0 mi SW 3.5 mph - N/A   Clear
2:13 PM 10.4 °F -0.4 °F -14.8 °F 31% 30.23 in 10.0 mi SSW 6.9 mph - N/A   Unknown
2:32 PM 10.4 °F - -14.8 °F 31% 30.22 in 10.0 mi Calm Calm - N/A   Clear
2:53 PM 12.2 °F 6.1 °F -14.8 °F 29% 30.22 in 10.0 mi West 3.5 mph - N/A   Clear
3:12 PM 10.4 °F -0.4 °F -14.8 °F 31% 30.21 in 10.0 mi SSW 6.9 mph - N/A   Clear
3:33 PM 10.4 °F -0.4 °F -14.8 °F 31% 30.21 in 10.0 mi SSW 6.9 mph - N/A   Clear
3:53 PM 10.4 °F 4.0 °F -14.8 °F 31% 30.21 in 10.0 mi WSW 3.5 mph - N/A   Clear
4:13 PM 10.4 °F 4.0 °F -13.0 °F 34% 30.20 in 10.0 mi WSW 3.5 mph - N/A   Clear
4:33 PM 10.4 °F 4.0 °F -13.0 °F 34% 30.20 in 10.0 mi WSW 3.5 mph - N/A   Clear
4:53 PM 10.4 °F -0.4 °F -11.2 °F 37% 30.19 in 10.0 mi SW 6.9 mph - N/A   Clear
5:13 PM 10.4 °F -0.4 °F -11.2 °F 37% 30.20 in 10.0 mi SW 6.9 mph - N/A   Scattered Clouds
5:33 PM 8.6 °F -1.3 °F -13.0 °F 37% 30.20 in 10.0 mi WSW 5.8 mph - N/A   Scattered Clouds
5:53 PM 8.6 °F 0.1 °F -9.4 °F 44% 30.20 in 10.0 mi SW 4.6 mph - N/A   Overcast
6:13 PM 8.6 °F 2.0 °F -9.4 °F 44% 30.19 in 10.0 mi SW 3.5 mph - N/A   Overcast
6:33 PM 8.6 °F -1.3 °F -9.4 °F 44% 30.19 in 10.0 mi SW 5.8 mph - N/A   Overcast
6:53 PM 6.8 °F -4.8 °F -9.4 °F 48% 30.20 in 10.0 mi WSW 6.9 mph - N/A   Overcast
7:13 PM 6.8 °F -3.5 °F -5.8 °F 56% 30.19 in 10.0 mi WSW 5.8 mph - N/A   Overcast
7:33 PM 6.8 °F -2.0 °F -2.2 °F 67% 30.19 in 10.0 mi WSW 4.6 mph - N/A   Overcast
7:53 PM 6.8 °F -3.5 °F -2.2 °F 67% 30.19 in 10.0 mi WSW 5.8 mph - N/A   Mostly Cloudy
8:12 PM 6.8 °F -2.0 °F -0.4 °F 72% 30.19 in 7.0 mi West 4.6 mph - N/A Snow Light Snow
8:33 PM 5.0 °F -2.1 °F -0.4 °F 78% 30.19 in 5.0 mi WSW 3.5 mph - N/A Snow Light Snow
8:53 PM 5.0 °F -2.1 °F -0.4 °F 78% 30.19 in 5.0 mi WSW 3.5 mph - N/A Snow Light Snow
9:12 PM 5.0 °F -2.1 °F -0.4 °F 78% 30.18 in 5.0 mi SW 3.5 mph - N/A Snow Light Snow
9:33 PM 3.2 °F -4.2 °F -0.4 °F 85% 30.18 in 5.0 mi SW 3.5 mph - N/A Snow Light Snow
9:53 PM 3.2 °F -4.2 °F -0.4 °F 85% 30.18 in 10.0 mi SW 3.5 mph - N/A Snow Light Snow
10:13 PM 3.2 °F - -0.4 °F 85% 30.18 in 7.0 mi Calm Calm - N/A Snow Light Snow
10:33 PM 3.2 °F - -0.4 °F 85% 30.18 in 7.0 mi Calm Calm - N/A Snow Light Snow
10:52 PM 3.2 °F - -0.4 °F 85% 30.17 in 5.0 mi Calm Calm - N/A Snow Light Snow
11:13 PM 3.2 °F - -0.4 °F 85% 30.16 in 7.0 mi Calm Calm - N/A Snow Light Snow
11:33 PM 3.2 °F - -0.4 °F 85% 30.16 in 7.0 mi Calm Calm - N/A Snow Light Snow
11:52 PM 3.2 °F - -0.4 °F 85% 30.16 in 3.0 mi Calm Calm - N/A Snow Light Snow